Погода в Большой Константиновке

Россия / Самарская область     54°15′22″N   50°17′53″E
темп.,
°C
ветер,
м/с
пор.,
м/с
влажн.,
%
обл.,
%
осадки,
мм/ч
давл.,
гПа
погр.,
м
2 декабря, чт
чт201:00−2з4989100 0.0 996398
04:00−4зюз410915 0.0 998302
07:00−4юз410908 0.0 1000268
10:00−3юз5119191 0.0 1002372
13:00−2юз6119281 0.1 1003699
16:00−1зюз61095100 0.6 1004794
19:00−4зюз498321 0.1 1007313
22:00−5юз498684 0.1 1008298
3 декабря, пт
пт301:00−4юз6118699 0.0 1009569
04:00−3юз61187100 0.0 1009535
07:00−3ююз61293100 0.1 1009594
10:00−2юз61295100 0.3 1010558
13:000юз61396100 0.2 1010590
16:00+1юз61398100 0.2 1012533
19:00+1юз61398100 0.0 1014409
22:00+1ююз51298100 0.0 1015365
4 декабря, сб
сб401:00+2ююз51298100 0.0 1015417
04:00+2ююз71698100 0.0 1014513
07:00+3ююз8188423 0.0 1013525
10:00+2ю9208188 0.0 1013668
13:00+3ююз92086100 0.0 1011779
16:00+3ююз91794100 0.9 1010864
19:00+2юз71497100 4.1 1011775
22:00+1юз4899100 6.4 1011392
5 декабря, вс
вс501:000з3698100 0.8 1012320
04:000зюз3796100 1.0 1013288
07:00−3з38925 0.0 1014275
10:00−3з38905 0.0 1016537
13:00−2зсз4778100 0.0 1017812
16:00−2зсз3681100 0.0 1019453
19:00−3з358552 0.0 1021371
22:00−3зсз258615 0.0 1022220
6 декабря, пн
пн601:00−4зсз258699 0.0 1023269
04:00−4зсз2586100 0.0 1025385
07:00−4сз3584100 0.0 1025520
10:00−4с4479100 0.0 1028567
13:00−5с4472100 0.0 1030631
16:00−6ссв446980 0.0 1031534
19:00−7св446987 0.0 1033428
22:00−8всв347379 0.0 1034380